TimeEET,TemperatureF,Dew PointF,Humidity,Sea Level PressureIn,VisibilityMPH,Wind Direction,Wind SpeedMPH,Gust SpeedMPH,PrecipitationIn,Events,Conditions,WindDirDegrees,DateUTC
12:00 AM,60.8,33.8,36,30.12,-9999.0,North,8.1,-,N/A,,Clear,350,2013-01-14 22:00:00
1:00 AM,60.8,32.0,34,30.12,-9999.0,North,11.5,-,N/A,,Clear,360,2013-01-14 23:00:00
2:00 AM,59.0,30.2,34,30.12,-9999.0,North,9.2,-,N/A,,Clear,360,2013-01-15 00:00:00
3:00 AM,59.0,32.0,36,30.12,-9999.0,North,9.2,-,N/A,,Clear,350,2013-01-15 01:00:00
4:00 AM,59.0,32.0,36,30.12,-9999.0,North,10.4,-,N/A,,Clear,360,2013-01-15 02:00:00
5:00 AM,59.0,30.2,34,30.12,-9999.0,North,9.2,-,N/A,,Clear,350,2013-01-15 03:00:00
6:00 AM,57.2,28.4,33,30.15,-9999.0,North,6.9,-,N/A,,Clear,350,2013-01-15 04:00:00
7:00 AM,57.2,26.6,31,30.15,-9999.0,North,9.2,-,N/A,,Clear,350,2013-01-15 05:00:00
8:00 AM,60.8,30.2,31,30.15,-9999.0,North,8.1,-,N/A,,Clear,360,2013-01-15 06:00:00
9:00 AM,68.0,32.0,26,30.18,-9999.0,North,11.5,-,N/A,,Clear,360,2013-01-15 07:00:00
10:00 AM,53.6,30.2,41,30.18,-9999.0,North,13.8,-,N/A,,Clear,10,2013-01-15 08:00:00
11:00 AM,73.4,32.0,22,30.15,-9999.0,NNE,10.4,-,N/A,,Clear,20,2013-01-15 09:00:00
12:00 PM,75.2,35.6,24,30.12,-9999.0,NNE,11.5,-,N/A,,Clear,20,2013-01-15 10:00:00
1:00 PM,77.0,33.8,21,30.09,3.7,NNE,10.4,-,N/A,,Unknown,20,2013-01-15 11:00:00
2:00 PM,77.0,35.6,22,30.09,3.7,NNE,9.2,-,N/A,,Unknown,30,2013-01-15 12:00:00
3:00 PM,77.0,37.4,24,30.09,3.7,NNE,9.2,-,N/A,,Unknown,20,2013-01-15 13:00:00
4:00 PM,71.6,37.4,29,30.09,3.7,NNE,9.2,-,N/A,,Unknown,20,2013-01-15 14:00:00
5:00 PM,69.8,35.6,28,30.09,3.7,North,9.2,-,N/A,,Unknown,10,2013-01-15 15:00:00
6:00 PM,64.4,39.2,40,30.09,-9999.0,North,9.2,-,N/A,,Clear,360,2013-01-15 16:00:00
7:00 PM,64.4,39.2,40,30.09,3.7,NNE,10.4,-,N/A,,Unknown,20,2013-01-15 17:00:00
8:00 PM,62.6,39.2,42,30.12,3.7,North,8.1,-,N/A,,Unknown,360,2013-01-15 18:00:00
9:00 PM,62.6,37.4,39,30.12,3.7,North,8.1,-,N/A,,Unknown,360,2013-01-15 19:00:00
10:00 PM,53.6,33.8,47,30.09,3.7,North,8.1,-,N/A,,Unknown,360,2013-01-15 20:00:00
11:00 PM,62.6,30.2,30,30.09,3.7,North,10.4,-,N/A,,Unknown,360,2013-01-15 21:00:00